This demonstration page uses our WeatherBlox Daily Observations layout. Learn more.

Left ArrowRight Arrow

36.19886, -115.1175

Hourly Observations for May 18, 2020

Temp ( °F °C ) Dew Point ( °F °C ) Humidity (%) Winds ( mph kmh ) Pressure ( in mb ) Visibility ( mi km ) Precip ( " mm )
12:53 am 00:53 Clear 79 26.1 32 undefined 18 18 SW 14 22 29.73 1007 10 16 N/A
1:53 am 01:53 Clear 79 26.1 32 undefined 18 18 S 17 28 29.73 1007 10 16 N/A
2:53 am 02:53 Clear 77 25 33 0.6 20 20 S 13 20 29.73 1007 10 16 N/A
3:53 am 03:53 Clear 75 23.9 34 1.1 22 22 S 8 13 29.74 1007 10 16 N/A
4:53 am 04:53 Clear 73 22.8 34 1.1 24 24 SSE 12 19 29.75 1007 10 16 N/A
5:53 am 05:53 Sunny 72 22.2 35 1.7 26 26 SSE 10 17 29.76 1008 10 16 N/A
6:53 am 06:53 Sunny 74 23.3 34 1.1 23 23 S 13 20 29.77 1008 10 16 N/A
7:53 am 07:53 Sunny 76 24.4 32 undefined 20 20 S 14 22 29.78 1009 10 16 N/A
8:53 am 08:53 Sunny 80 26.7 29 -1.7 15 15 SSE 18 30 29.79 1009 10 16 N/A
9:53 am 09:53 Sunny 82 27.8 29 -1.7 14 14 SW 10 17 29.78 1009 10 16 N/A
10:53 am 10:53 Sunny 84 28.9 27 -2.8 12 12 S 23 37 29.79 1009 10 16 N/A
11:53 am 11:53 Sunny 84 28.9 31 -0.6 15 15 S 16 26 29.78 1009 10 16 N/A
12:53 pm 12:53 Sunny 87 30.6 28 -2.2 12 12 SW 15 24 29.76 1008 10 16 N/A
1:53 pm 13:53 Sunny 88 31.1 30 -1.1 12 12 SSW 16 26 29.74 1007 10 16 N/A
2:53 pm 14:53 Sunny 91 32.8 27 -2.8 10 10 SW 24 39 29.70 1006 10 16 N/A
3:53 pm 15:53 Sunny 90 32.2 26 -3.3 10 10 SW 21 33 29.69 1005 10 16 N/A
4:53 pm 16:53 Sunny 89 31.7 27 -2.8 11 11 SW 16 26 29.67 1005 10 16 N/A
5:53 pm 17:53 Sunny 87 30.6 26 -3.3 11 11 SW 20 31 29.67 1005 10 16 N/A
6:53 pm 18:53 Sunny 86 30 27 -2.8 12 12 WSW 13 20 29.65 1004 10 16 N/A
7:53 pm 19:53 Clear 82 27.8 42 5.6 24 24 WSW 17 28 29.66 1004 10 16 N/A
8:53 pm 20:53 Clear 79 26.1 43 6.1 28 28 WSW 18 30 29.68 1005 10 16 N/A
9:53 pm 21:53 Clear 76 24.4 43 6.1 31 31 WSW 15 24 29.71 1006 10 16 N/A
10:53 pm 22:53 Clear 74 23.3 39 3.9 28 28 WSW 21 33 29.71 1006 10 16 N/A
11:53 pm 23:53 Clear 73 22.8 38 3.3 28 28 SW 14 22 29.72 1007 10 16 N/A

Powered by AerisWeather